Regional Weather Roundup
Issued by NWS Sioux Falls, SD

Home | Current Version | Previous Version | Text Only | Print | Product List | Glossary On
Versions: 1 2 3 4 5 6 7 8 9 10 11 12 13 14 15 16 17 18 19 20 21 22 23 24 25 26 27 28 29 30 31 32 33 34 35 36 37 38 39 40 41 42 43 44 45 46 47 48 49 50
000
ASUS43 KFSD 301710
RWRFSD

WEATHER ROUNDUP FOR SE SOUTH DAKOTA/SW MINNESOTA/NW IOWA
NATIONAL WEATHER SERVICE SIOUX FALLS SD
1200 PM CDT THU OCT 30 2014

NOTE: "FAIR" INDICATES FEW OR NO CLOUDS BELOW 12,000 FEET WITH NO
SIGNIFICANT WEATHER AND OR OBSTRUCTIONS TO VISIBILITY.


SDZ038>040-050-052>070-301800-
SOUTHEAST SOUTH DAKOTA

CITY           SKY/WX    TMP DP  RH WIND       PRES   REMARKS
CHAMBERLAIN    SUNNY     48  36  62 NW22      30.24R
HURON          CLOUDY    42  37  82 N21G28    30.21R
MADISON        CLOUDY    46  43  87 N16G22    30.13R
MITCHELL       MOSUNNY   49  38  65 N20G28    30.19R
SIOUX FALLS    MOSUNNY   53  39  59 N16       30.10R
WINNER         FAIR      51  35  54 NW25G32   30.24R
YANKTON        SUNNY     52  41  66 NW22      30.14R
$$

MNZ071-072-080-081-089-090-097-098-301800-
SOUTHWEST MINNESOTA

CITY           SKY/WX    TMP DP  RH WIND       PRES   REMARKS
FAIRMONT       MOSUNNY   54  34  47 N6        30.06R
JACKSON        SUNNY     52  32  46 N10G18    30.06R
LUVERNE        PTSUNNY   55  34  44 N9        30.09R
MARSHALL       CLOUDY    45  36  70 N13       30.11R
MONTEVIDEO     CLOUDY    46  43  87 N8        30.13R
PIPESTONE      SUNNY     54  34  47 N10G17    30.08R
REDWOOD FALLS  CLOUDY    47  38  71 N9        30.10R
TRACY          CLOUDY    48  40  74 N12       30.11R
WINDOM         PTSUNNY   54  36  50 N13G18    30.06S
WORTHINGTON    SUNNY     52  34  50 N15G22    30.07R
$$

IAZ001>003-012>014-020>022-031-032-NEZ013-014-SDZ071-301800-
NORTHWEST IOWA

CITY           SKY/WX    TMP DP  RH WIND       PRES   REMARKS
CHEROKEE       SUNNY     53  40  60 NW10G20   30.05R
DENISON        SUNNY     55  37  50 NW10      30.03R
ESTHERVILLE    MOSUNNY   51  35  54 N9        30.04R
LE MARS        SUNNY     55  37  50 NW13G20   30.09R
ORANGE CITY    SUNNY     55  36  47 N12G18    30.07R
SHELDON        SUNNY     55  36  47 NW12G22   30.05R
SIOUX CITY     SUNNY     55  38  52 NW15G21   30.08R
SPENCER        SUNNY     54  36  50 N14       30.05R
STORM LAKE     SUNNY     54  36  50 NW13G18   30.05R
$$

ABBREVIATIONS USED IN REMARKS
   TC - TEMPERATURE IN CELSIUS
  WCI - WIND CHILL INDEX
   HX - HEAT INDEX
  VSB - VISIBILITY




USA.gov is the U.S. government's official web portal to all federal, state and local government web resources and services.